Location: Lawrence Hall of Science
(37.8785°N, 122.2415°W)
Time: 19:12:01
(UTC-07:00)

Daily predictions for brighter satellites

Satellite Brightness Start Highest point End
(mag) Time Altitude Azimuth Time Altitude Azimuth Time Altitude Azimuth
Helios 1B rocket 4.1 19:51:11 10° ENE 19:53:26 14° E 19:55:42 10° SE
Cosmos 1437 Rocket 2.9 19:51:53 10° S 19:55:45 53° E 19:59:43 10° NNE
METEOR-M 4.3 19:50:38 10° S 19:55:58 80° WSW 20:01:20 10° NNW
SJ-6B 2.6 19:53:24 10° SSE 19:57:07 71° ENE 20:00:51 10° N
Lacrosse 4 Rocket 1.3 19:56:43 10° SSW 20:00:47 87° WNW 20:04:51 10° NNE
Meteor 1-22 Rocket 4.5 19:56:34 10° SSE 20:02:05 50° E 20:07:50 10° NNE
Resurs 1-3 4.2 20:02:14 10° SE 20:06:15 36° ENE 20:10:17 10° N
Cosmos 1758 4.5 20:14:00 10° SE 20:17:04 22° E 20:20:10 10° NE
Tiangong 1 1.6 20:15:42 10° WNW 20:18:32 42° NNE 20:20:12 20° ENE
Spot 2 Rocket 3.6 20:13:59 10° SSE 20:18:59 59° ENE 20:24:01 10° N
Cosmos 2344 3.6 20:12:55 10° SSW 20:20:35 82° ESE 20:28:58 10° NE
Cosmos 1844 Rocket 3.3 20:15:43 10° SW 20:21:18 60° WNW 20:26:52 10° NNE
Cosmos 2150 Rocket 4.2 20:16:11 10° SSW 20:21:19 76° WNW 20:26:29 10° NNE
In-Cosmos 22 4.4 20:16:52 10° N 20:21:54 42° ENE 20:26:52 10° SSE
Cosmos 1378 3.1 20:19:36 10° N 20:23:23 89° W 20:27:07 10° S
Cosmos 1953 3.3 20:23:51 10° SSE 20:27:17 27° E 20:30:45 10° NNE
USA 186 2.6 20:28:06 20° NE 20:28:06 20° NE 20:29:15 10° NNE
FengYun 1-2 T 4.4 20:25:12 10° S 20:30:45 79° WSW 20:36:23 10° NNW
Cosmos 2278 Rocket 2.1 20:25:11 10° S 20:30:48 68° ESE 20:36:27 10° NNE
H-2A R/B 2.7 20:28:01 10° SSE 20:31:53 89° NE 20:35:49 10° NNW
Cosmos 1833 Rocket 4.1 20:28:47 10° N 20:32:48 20° NE 20:34:24 18° ENE
USA 215 3.3 20:27:06 10° NE 20:33:32 57° SE 20:39:54 10° SSW
Okean 3 Rocket 3.9 20:29:27 10° N 20:33:41 44° E 20:36:56 16° SSE
Cosmos 990 Rocket 4.2 20:29:20 10° SSW 20:34:34 77° WNW 20:39:51 10° NNE
Envisat 3.8 20:34:42 22° ESE 20:36:59 32° ENE 20:41:26 10° N
Cosmos 1934 Rocket 4.1 20:33:54 10° S 20:40:03 78° W 20:46:10 10° N
FENGYUN 3A 4.3 20:34:58 10° S 20:40:17 58° W 20:45:37 10° NNW
SAR-Lupe-1 4.4 20:39:57 32° ESE 20:41:04 42° ENE 20:44:30 10° N
Cosmos 1125 Rocket 3.8 20:37:43 10° S 20:42:31 40° ESE 20:47:21 10° NE
Cosmos 2297 4.1 20:38:07 10° S 20:43:18 37° ESE 20:48:31 10° NE
CZ-4B DEB 3.7 20:46:52 30° NE 20:46:52 30° NE 20:49:03 10° N
Meteor 1-24 Rocket 4.0 20:42:32 10° NNW 20:47:58 69° W 20:53:36 10° S
Meteor 1-4 Rocket 2.6 20:48:51 45° E 20:48:51 45° E 20:52:11 10° NNE
Cosmos 1544 2.9 20:47:16 10° S 20:50:52 71° E 20:54:31 10° NNE
Cosmos 1766 4.2 20:48:16 10° SSW 20:52:01 48° W 20:55:48 10° N
Geosat 4.4 20:48:12 10° NNE 20:53:12 66° WNW 20:58:10 10° SW
ALOS 3.9 20:49:06 10° SSW 20:53:22 35° W 20:57:39 10° NNW
GP-B 3.3 20:52:13 32° SE 20:53:52 48° E 20:58:08 10° N
Resurs 01 Rocket 2.5 20:50:44 10° S 20:55:00 51° W 20:59:20 10° NNW
SL-27 R/B 2.8 20:52:27 10° NNW 20:55:59 64° WSW 20:58:00 24° S
RESURS DK-1 2.3 20:52:02 10° NNW 20:56:11 84° WSW 20:58:05 31° SSE
Meteor 1-29 2.8 20:55:55 10° NNE 20:59:24 70° ESE 21:00:09 50° SSE
COSMOS 2487 4.5 20:57:19 10° NNE 20:58:42 17° NNE 20:58:42 17° NNE
Cosmos 2082 Rocket 2.8 20:57:22 10° N 21:02:37 37° ENE 21:03:31 35° E
ERS-1 Rocket 3.8 21:03:31 30° ENE 21:03:31 30° ENE 21:07:43 10° N
Cosmos 1818 3.9 21:00:22 10° NNW 21:05:36 46° NE 21:06:41 41° E
Lacrosse 5 2.7 21:06:14 10° WSW 21:11:09 50° NW 21:16:05 10° NNE
Cosmos 1766 Rocket 3.7 21:08:08 10° N 21:12:21 55° ENE 21:12:21 55° ENE
Cosmos 1076 Rocket 3.3 21:08:39 10° N 21:12:55 80° E 21:13:29 65° SSE
Delta 2 Rocket 3.8 21:09:49 10° W 21:14:09 46° SSW 21:14:18 46° S
Timation 1 Rocket 4.3 21:09:31 10° SSW 21:15:32 88° ESE 21:21:36 10° NNE
Cosmos 2100 Rocket 4.0 21:13:07 21° SSE 21:17:19 60° E 21:23:34 10° NNE
Cosmos 1269 Rocket 4.0 21:15:30 10° N 21:20:43 59° ENE 21:21:03 58° E
Cosmos 2098 Rocket 4.4 21:14:27 10° S 21:21:21 82° W 21:29:01 10° N
Meteor 1-21 Rocket 4.3 21:22:31 10° N 21:28:21 85° W 21:30:51 37° S
Helios 1B rocket 3.8 21:25:02 10° N 21:28:55 40° WNW 21:32:45 10° SW
Helios 1A 4.1 21:27:24 25° SSW 21:29:20 41° W 21:33:18 10° NNW
Cosmos 1674 3.9 21:26:13 10° N 21:28:28 34° N 21:28:28 34° N
Cosmos-2242 4.1 21:35:33 35° N 21:35:33 35° N 21:38:04 10° N
Cosmos 1802 Rocket 3.8 21:34:35 63° ESE 21:34:52 64° E 21:40:57 10° NNE
Cosmos 1867 3.5 21:33:16 10° SSW 21:38:43 81° WNW 21:44:13 10° NNE
Cosmos 2061 Rocket 3.9 21:41:04 47° S 21:43:03 82° E 21:49:30 10° N
Timation 2 Rocket 3.8 21:43:34 10° NNW 21:49:45 74° NE 21:49:45 74° NE
Cosmos 372 Rocket 4.4 21:48:44 10° SSW 21:53:44 57° WNW 21:58:49 10° N
CZ-3B DEB 4.2 21:50:02 10° W 21:57:26 26° NW 22:01:04 12° NNE
H-2A R/B 4.0 22:07:10 19° NNE 22:07:10 19° NNE 22:08:55 10° N
BREEZE-M DEB (TANK) 3.9 22:08:48 10° WSW 22:12:56 71° NNW 22:29:16 10° ENE
USA 215 4.3 22:10:17 10° NE 22:16:21 42° NNW 22:22:23 10° WSW
Cosmos 1833 Rocket 3.4 22:11:37 10° NNW 22:16:07 51° WNW 22:16:07 51° WNW
Lacrosse 5 rocket 4.5 22:26:32 10° NNW 22:26:35 10° NNW 22:26:35 10° NNW
Cosmos 2082 Rocket 4.0 22:41:43 10° NW 22:45:24 27° W 22:45:24 27° W
USA 267 4.0 22:49:22 47° NNW 22:49:22 47° NNW 22:53:55 10° NW
